This is the latest recevied weather packets stored in our database for station/object MM1PTT-13. If no packets are shown the sender has not sent any weather packets the latest 10 day(s).
| Time | Temp. | Humidity | Pressure | Rain* | Wind** | Luminosity | Snow |
|---|---|---|---|---|---|---|---|
| 1777637142 | 14.44° C | 69% | 989.5 hPa | 0 mm | - | 387 W/m² | - |
| 1777636842 | 14.44° C | 67% | 989.5 hPa | 0 mm | - | 278 W/m² | - |
| 1777636543 | 15° C | 61% | 989.2 hPa | 0 mm | - | 196 W/m² | - |
| 1777636243 | 15° C | 64% | 989.5 hPa | 0 mm | - | 232 W/m² | - |
| 1777635942 | 14.44° C | 64% | 989.5 hPa | 0 mm | - | 416 W/m² | - |
| 1777635642 | 14.44° C | 66% | 989.5 hPa | 0 mm | - | 486 W/m² | - |
| 1777635342 | 13.89° C | 65% | 989.2 hPa | 0 mm | - | 539 W/m² | - |
| 1777635043 | 13.89° C | 65% | 989.5 hPa | 0 mm | - | 428 W/m² | - |
| 1777634742 | 13.89° C | 67% | 989.5 hPa | 0 mm | - | 331 W/m² | - |
| 1777634443 | 13.33° C | 69% | 989.8 hPa | 0 mm | - | 331 W/m² | - |
| 1777634143 | 13.33° C | 69% | 989.8 hPa | 0 mm | - | 235 W/m² | - |
| 1777633843 | 13.89° C | 68% | 989.8 hPa | 0 mm | - | 227 W/m² | - |
| 1777633543 | 13.89° C | 67% | 989.8 hPa | 0 mm | - | 285 W/m² | - |
| 1777633243 | 13.89° C | 65% | 990.2 hPa | 0 mm | - | 276 W/m² | - |
| 1777632950 | 13.89° C | 67% | 990.2 hPa | 0 mm | - | 226 W/m² | - |
| 1777632643 | 13.33° C | 65% | 990.2 hPa | 0 mm | - | 230 W/m² | - |
| 1777632343 | 13.33° C | 67% | 989.8 hPa | 0 mm | - | 276 W/m² | - |
| 1777632043 | 13.33° C | 68% | 990.2 hPa | 0 mm | - | 379 W/m² | - |
| 1777631742 | 13.33° C | 68% | 989.8 hPa | 0 mm | - | 315 W/m² | - |
| 1777631443 | 13.33° C | 68% | 989.8 hPa | 0 mm | - | 271 W/m² | - |
| 1777631142 | 13.33° C | 67% | 990.2 hPa | 0 mm | - | 297 W/m² | - |
| 1777630845 | 13.33° C | 68% | 990.2 hPa | 0 mm | - | 308 W/m² | - |
| 1777630543 | 13.33° C | 68% | 990.2 hPa | 0 mm | - | 328 W/m² | - |
| 1777630242 | 13.33° C | 68% | 990.2 hPa | 0 mm | - | 313 W/m² | - |
| 1777629942 | 12.78° C | 69% | 990.2 hPa | 0 mm | - | 303 W/m² | - |
* Rain latest hour (hover to see other rain measurements)
** Current wind speed in m/s (hover to see current wind gust speed)